Location: Eboldshausen
(51.7766°N, 10.0050°E)
Time: 16:06:09
(UTC+00:00)

CZ-4C R/B - Pass Details

Date: 15 November 2025
Orbit: 487 x 1493 km, 63.4° (Epoch: 12 December)

Event Time Altitude Azimuth Distance (km) Brightness Sun altitude
Rises 17:13:37 0° 259° (W) 2,903 6.9 -15.9°
Reaches altitude 10° 17:15:49 10° 268° (W) 2,111 5.6 -16.3°
Maximum altitude 17:20:18 38° 337° (NNW) 1,212 3.1 -16.9°
Enters shadow 17:24:31 16° 37° (NE) 2,190 3.9 -17.6°
